This is the latest recevied weather packets stored in our database for station/object N7NMS-13. If no packets are shown the sender has not sent any weather packets the latest 10 day(s).
| Time | Temp. | Humidity | Pressure | Rain* | Wind** | Luminosity | Snow |
|---|---|---|---|---|---|---|---|
| 1777823923 | 10° C | 48% | - | 0 mm | - | - | - |
| 1777823323 | 10° C | 49% | - | 0 mm | - | - | - |
| 1777822723 | 9.44° C | 47% | - | 0 mm | - | - | - |
| 1777822123 | 10° C | 50% | - | 0 mm | - | - | - |
| 1777821523 | 9.44° C | 54% | - | 0 mm | - | - | - |
| 1777820923 | 8.89° C | 54% | - | 0 mm | - | - | - |
| 1777820323 | 8.33° C | 55% | - | 0 mm | - | - | - |
| 1777819723 | 8.33° C | 54% | - | 0 mm | - | - | - |
| 1777819123 | 8.33° C | 54% | - | 0 mm | - | - | - |
| 1777818523 | 7.78° C | 58% | - | 0 mm | - | - | - |
| 1777817923 | 7.78° C | 57% | - | 0 mm | - | - | - |
| 1777817323 | 7.78° C | 59% | - | 0 mm | - | - | - |
| 1777816693 | 7.78° C | 59% | - | 0 mm | - | - | - |
| 1777816093 | 7.22° C | 62% | - | 0 mm | - | - | - |
| 1777815493 | 6.67° C | 61% | - | 0 mm | - | - | - |
| 1777814893 | 6.67° C | 66% | - | 0 mm | - | - | - |
| 1777814263 | 6.67° C | 66% | - | 0 mm | - | - | - |
| 1777813633 | 6.11° C | 68% | - | 0 mm | - | - | - |
| 1777813033 | 6.11° C | 71% | - | 0 mm | - | - | - |
| 1777812403 | 5.56° C | 74% | - | 0 mm | - | - | - |
| 1777811803 | 5° C | 75% | - | 0 mm | - | - | - |
| 1777811203 | 4.44° C | 79% | - | 0 mm | - | - | - |
| 1777810603 | 3.89° C | 80% | - | 0 mm | - | - | - |
| 1777810003 | 3.33° C | 81% | - | 0 mm | - | - | - |
| 1777809403 | 3.89° C | 83% | - | 0 mm | - | - | - |
* Rain latest hour (hover to see other rain measurements)
** Current wind speed in m/s (hover to see current wind gust speed)